This is the latest recevied weather packets stored in our database for station/object DK9XR-14. If no packets are shown the sender has not sent any weather packets the latest 10 day(s).
| Time | Temp. | Humidity | Pressure | Rain* | Wind** | Luminosity | Snow |
|---|---|---|---|---|---|---|---|
| 1777109790 | 17.78° C | 36% | 1019.4 hPa | 0 mm | - | - | - |
| 1777109486 | 17.78° C | 35% | 1019.4 hPa | 0 mm | - | - | - |
| 1777109185 | 17.78° C | 36% | 1019.4 hPa | 0 mm | - | - | - |
| 1777108888 | 17.78° C | 36% | 1019.4 hPa | 0 mm | - | - | - |
| 1777108584 | 17.22° C | 36% | 1019.4 hPa | 0 mm | - | - | - |
| 1777108283 | 16.67° C | 37% | 1019.4 hPa | 0 mm | - | - | - |
| 1777107980 | 16.67° C | 35% | 1019.4 hPa | 0 mm | - | - | - |
| 1777107680 | 16.67° C | 38% | 1019.4 hPa | 0 mm | - | - | - |
| 1777107380 | 16.67° C | 39% | 1019.4 hPa | 0 mm | - | - | - |
| 1777107076 | 16.11° C | 40% | 1019.5 hPa | 0 mm | - | - | - |
| 1777106775 | 16.11° C | 41% | 1019.4 hPa | 0 mm | - | - | - |
| 1777106474 | 15.56° C | 42% | 1019.5 hPa | 0 mm | - | - | - |
| 1777106175 | 15.56° C | 44% | 1019.4 hPa | 0 mm | - | - | - |
| 1777105875 | 15° C | 45% | 1019.4 hPa | 0 mm | - | - | - |
| 1777105576 | 15° C | 44% | 1019.4 hPa | 0 mm | - | - | - |
| 1777105274 | 15° C | 45% | 1019.6 hPa | 0 mm | - | - | - |
| 1777104973 | 14.44° C | 47% | 1019.5 hPa | 0 mm | - | - | - |
| 1777104674 | 14.44° C | 50% | 1019.4 hPa | 0 mm | - | - | - |
| 1777104371 | 13.89° C | 51% | 1019.5 hPa | 0 mm | - | - | - |
| 1777104071 | 13.33° C | 50% | 1019.5 hPa | 0 mm | - | - | - |
| 1777103773 | 13.33° C | 50% | 1019.5 hPa | 0 mm | - | - | - |
| 1777103469 | 13.33° C | 50% | 1019.5 hPa | 0 mm | - | - | - |
| 1777103169 | 13.33° C | 52% | 1019.5 hPa | 0 mm | - | - | - |
| 1777102870 | 12.78° C | 51% | 1019.5 hPa | 0 mm | - | - | - |
| 1777102565 | 12.22° C | 55% | 1019.5 hPa | 0 mm | - | - | - |
* Rain latest hour (hover to see other rain measurements)
** Current wind speed in m/s (hover to see current wind gust speed)